Regional Weather Roundup
Issued by NWS Little Rock, AR

Home | Current Version | Previous Version | Graphics & Text | Print | Product List | Glossary On
Versions: 1 2 3 4 5 6 7 8 9 10 11 12 13 14 15 16 17 18 19 20 21 22 23 24 25 26 27 28 29 30 31 32 33 34 35 36 37 38 39 40 41 42 43 44 45 46 47 48 49 50
000
ASUS44 KLZK 120905
RWRLZK

WEATHER ROUNDUP FOR ARKANSAS
NATIONAL WEATHER SERVICE LITTLE ROCK AR
400 AM CDT SAT JUL 12 2014

NOTE: "FAIR" INDICATES FEW OR NO CLOUDS BELOW 12,000 FEET WITH NO
SIGNIFICANT WEATHER AND/OR OBSTRUCTIONS TO VISIBILITY.

ARZ001-003-010-029-121000-
NORTHWEST ARKANSAS

CITY           SKY/WX    TMP DP  RH WIND       PRES   REMARKS
FAYETTEVILLE   CLEAR     68  68 100 CALM      30.16F
FORT SMITH     CLEAR     76  72  87 N3        30.12S
HARRISON       CLEAR     74  70  87 CALM      30.16S
BENTONVILLE    CLEAR     72  66  83 S3        30.16F
ROGERS         CLEAR     74  68  81 S9        30.17S
SILOAM SPGS    CLEAR     72  63  73 S6        30.16S
HIGHFILL       CLEAR     71  69  93 CALM      30.16S
$$

ARZ004-005-016-121000-
NORTH CENTRAL ARKANSAS

CITY           SKY/WX    TMP DP  RH WIND       PRES   REMARKS
BATESVILLE     PTCLDY    75  72  88 CALM      30.13S
FLIPPIN        CLEAR     73  70  88 CALM      30.13F
MTN HOME       MOCLDY    74  74 100 CALM      30.13F FOG
$$

ARZ040-041-121000-
WEST CENTRAL ARKANSAS

CITY           SKY/WX    TMP DP  RH WIND       PRES   REMARKS
MENA           CLEAR     72 N/A N/A CALM      30.17S
MOUNT IDA      CLEAR     72  71  97 CALM      30.13S FOG
$$

ARZ009-017-025-026-028-121000-
NORTHEAST ARKANSAS

CITY           SKY/WX    TMP DP  RH WIND       PRES   REMARKS
CORNING        FAIR      73  73 100 CALM      30.13R
JONESBORO      CLEAR     74  71  91 CALM      30.12S
NEWPORT        PTCLDY    75  74  97 SW8       30.13S
WALNUT RIDGE   CLEAR     73  72  94 SW6       30.11F
BLYTHEVILLE    CLEAR     74  72  93 CALM      30.13S
$$

ARZ022-023-033-042-044-121000-
CENTRAL ARKANSAS

CITY           SKY/WX    TMP DP  RH WIND       PRES   REMARKS
LITTLE ROCK    PTCLDY    75  71  87 SW3       30.14S
N LITTLE ROCK    N/A     74  74  98 SW3       30.14S
JACKSONVILLE   CLEAR     72  72  99 NE1       30.13F
SEARCY         FOG       73  73 100 CALM      30.14S VSB 1
HOT SPRINGS    CLEAR     74  72  93 CALM      30.15S
RUSSELLVILLE   CLEAR     76  74  93 CALM      30.13S FOG
CLINTON        CLOUDY    73  73 100 CALM      30.15S FOG
$$

ARZ036-121000-
EAST ARKANSAS

CITY           SKY/WX    TMP DP  RH WIND       PRES   REMARKS
WEST MEMPHIS   FOG       72  72 100 CALM      30.12S VSB 1/4
$$

ARZ050-053-066-070-073-121000-
SOUTHWEST ARKANSAS

CITY           SKY/WX    TMP DP  RH WIND       PRES   REMARKS
ARKADELPHIA    FAIR      73  73 100 NE3       30.14R
CAMDEN         CLEAR     70  66  88 CALM      30.13S FOG
TEXARKANA      CLEAR     77  71  82 S6        30.13F
EL DORADO      CLEAR     72  70  93 CALM      30.14S
DE QUEEN       CLEAR     72  71  97 CALM      30.12S FOG
$$

ARZ056-057-069-121000-
SOUTHEAST ARKANSAS

CITY           SKY/WX    TMP DP  RH WIND       PRES   REMARKS
PINE BLUFF     CLEAR     72  71  97 CALM      30.14S
MONTICELLO     CLEAR     72  70  93 CALM      30.13S

$$




USA.gov is the U.S. government's official web portal to all federal, state and local government web resources and services.